Orbital elements:
2024 JL23                                                                       
Epoch 2024 Mar. 31.0 TT = JDT 2460400.5                 Veres                   
M 359.58483              (2000.0)            P               Q                  
n   0.00148322     Peri.  151.43396     -0.39202586     +0.84124130             
a  76.1493927      Node    93.32240     -0.89896863     -0.26435272             
e   0.8484019      Incl.   21.89802     -0.19537433     -0.47162562             
P 665              H   11.48          G   0.15           U   2                  
Residuals in seconds of arc
210417 F51  0.1-  0.1-    220605 F52  0.2+  0.0     240501 F52  0.0   0.0
210417 F51  0.0   0.1+    220605 F52  0.0   0.1-    240501 F52  0.1-  0.0
210417 F51  0.0   0.0     230327 F51  0.1-  0.0     240501 F52  0.2-  0.1-
210417 F51  0.1-  0.1-    230327 F51  0.2-  0.0     240501 F52  0.2-  0.1-
210601 F51  0.1+  0.1-    230327 F51  0.1+  0.0     240504 F52  0.2-  0.0
210601 F51  0.2+  0.1+    230327 F51  0.0   0.1-    240504 F52  0.1-  0.1+
210601 F51  0.3+  0.1-    230414 F52  0.1+  0.1-    240504 F52  0.1+  0.3-
210601 F51  0.1+  0.1+    230414 F52  0.1+  0.0     240504 F52  0.2-  0.0
220205 F52  0.1-  0.2-    230513 F52  0.1+  0.1+    240507 F52  0.3+  0.1-
220205 F52  0.0   0.1-    230513 F52  0.1-  0.1-    240507 F52  0.0   0.0
220205 F52  0.1-  0.1-    230513 F52  0.1+  0.2-    240507 F52  0.0   0.1-
220205 F52  0.0   0.0     230513 F52  0.0   0.1-    240507 F52  0.1-  0.1-
220209 F52  0.1+  0.1-    230524 F52  0.1-  0.0     240509 T14  0.0   0.0
220209 F52  0.0   0.1+    230607 F51  0.1-  0.1-    240509 T14  0.0   0.0
220209 F52  0.1+  0.0     230607 F51  0.1-  0.1-    240509 T14  0.0   0.0
220303 F52  0.0   0.1+    230607 F51  0.2-  0.1-    240510 V06  0.1-  0.0
220303 F52  0.0   0.2-    230615 F51  0.1-  0.0     240510 V06  0.3-  0.0
220329 F52  0.2-  0.0     230615 F51  0.0   0.0     240512 H21  0.4+  0.4-
220410 F52  0.2+  0.1+    230615 F51  0.1-  0.2+    240512 H21 (1.0+  0.2-)
220410 F52  0.1+  0.0     230615 F51  0.0   0.1-    240512 H21 (0.9+  0.1+)
220428 F52  0.4-  0.1+    230709 F51  0.0   0.2+    240515 V06  0.1+  0.0
220428 F52  0.0   0.6+    230709 F51  0.1-  0.1-    240515 V06  0.0   0.0
220428 F52  0.0   0.1+    230709 F51  0.2+  0.3-    240515 V06  0.0   0.0
220526 F52  0.2-  0.1+    230709 F51  0.0   0.2-    240515 V06  0.1+  0.1+
220526 F52  0.1-  0.2+    230716 F51  0.0   0.0     240519 695  0.0   0.1+
220526 F52  0.5-  0.2-    230716 F51  0.0   0.1-    240519 695  0.0   0.0
220605 F52  0.1+  0.1-    230716 F51  0.0   0.1+    240519 695  0.1+  0.0
220605 F52  0.1+  0.1+    230716 F51  0.3+  0.0

Ephemeris:
2024 JL23                a,e,i = 76.15, 0.85, 22                 q = 11.5441
Date    TT    R. A. (2000) Decl.     Delta      r    Elong.  Phase     V
2024 04 19    16 05 27.2 -06 24 24  10.7638 11.6080   145.8     2.8    22.3
...
2024 05 04    16 02 35.4 -06 17 41  10.6558 11.6009   158.7     1.8    22.2
...
2024 05 12    16 00 50.1 -06 15 26  10.6234 11.5973   163.9     1.4    22.1
...
2024 05 18    15 59 27.7 -06 14 33  10.6111 11.5946   165.9     1.2    22.1
2024 05 19    15 59 13.8 -06 14 28  10.6101 11.5942   166.0     1.2    22.1
2024 05 20    15 58 59.9 -06 14 25  10.6094 11.5938   166.0     1.2    22.1
...
2024 05 26    15 57 36.4 -06 14 33  10.6109 11.5912   164.7     1.3    22.1
...
2024 06 03    15 55 46.5 -06 16 02  10.6289 11.5879   160.1     1.7    22.1
...
2024 06 18    15 52 37.2 -06 23 17  10.7101 11.5821   147.8     2.7    22.2

M. P. C. Staff               (C) Copyright 2024 MPC           M.P.E.C. 2024-K30





More information about the Iaude mailing list